Regional Weather Roundup
Issued by NWS Goodland, KS

Home | Current Version | Previous Version | Graphics & Text | Print | Product List | Glossary On
Versions: 1 2 3 4 5 6 7 8 9 10 11 12 13 14 15 16 17 18 19 20 21 22 23 24 25 26 27 28 29 30 31 32 33 34 35 36 37 38 39 40 41 42 43 44 45 46 47 48 49 50
000
ASUS43 KGLD 140508
RWRGLD

GOODLAND FORECAST AREA HOURLY WEATHER ROUNDUP
NATIONAL WEATHER SERVICE GOODLAND KS
1100 PM MDT SUN JUL 13 2014

...OFFICIAL OBSERVATIONS...

CITY           SKY/WX    TMP DP  RH WIND       PRES   REMARKS
GOODLAND KS    PTCLDY    66  61  84 SW10      30.18S
HILL CITY KS   MOCLDY    72  64  76 NW5       30.10S
IMPERIAL NEB   CLEAR     65  62  90 W8        30.16R
MCCOOK NEB     CLEAR     68  63  84 W5        30.12R
AKRON CO       MOCLDY    63  58  83 S8        30.25R
BURLINGTON CO  PTCLDY    64  60  87 SW7       30.22F
LIMON CO       MOCLDY    61  59  93 S7        30.32F
$$

...UNOFFICIAL OBSERVATIONS...

CITY           SKY/WX    TMP DP  RH WIND       PRES   REMARKS
COLBY KS       CLEAR     66  66 100 W6        30.16S
GOVE KS          N/A     70  32  24 CALM        N/A
LENORA KS        N/A     69  32  25 MISG        N/A
NORTON KS      CLEAR     64  57  77 SW6       30.09F
OBERLIN KS     FAIR      66  61  82 CALM      30.12
SHARON SPRINGS   N/A     67  63  87 S7          N/A
WAKEENEY KS      N/A     76  62  61 MISG        N/A
KIT CARSON CO    N/A     65  61  87 CALM        N/A
YUMA CO          N/A     62  59  89 SW7         N/A
$$


USA.gov is the U.S. government's official web portal to all federal, state and local government web resources and services.